Preview of NWS' New Version of Forecast
This preview is not operational and should not be used for support decisions.

Regional Weather Roundup (RWR)

Issued by National Weather Service (NWS)

                            
000
ASUS45 KBOI 172310
RWRID 

IDAHO REGIONAL WEATHER ROUNDUP
NATIONAL WEATHER SERVICE BOISE ID
500 PM MDT TUE SEP 17 2019

NOTE: "FAIR" INDICATES FEW OR NO CLOUDS BELOW 12000 FEET
WITH NO SIGNIFICANT WEATHER AND/OR OBSTRUCTIONS TO VISIBILITY

IDZ012-014-180000-
SOUTHWEST IDAHO

  
CITY           SKY/WX    TMP DP  RH WIND       PRES   REMARKS
BOISE          SUNNY     68  39  34 E13       29.98F                  
CALDWELL       SUNNY     68  42  38 E10       29.97F                  
MOUNTAIN HOME  SUNNY     69  37  31 NE9       29.96F                  
$$

IDZ016-017-180000-
SOUTHCENTRAL IDAHO

  
CITY           SKY/WX    TMP DP  RH WIND       PRES   REMARKS
BURLEY         SUNNY     62  35  36 VRB7      30.04F                  
JEROME         SUNNY     64  38  38 VRB3      30.04F                  
TWIN FALLS     SUNNY     65  35  33 N9        30.03F                  
$$

IDZ019>023-180000-
SOUTHEAST IDAHO

  
CITY           SKY/WX    TMP DP  RH WIND       PRES   REMARKS
IDAHO FALLS    MOSUNNY   60  33  36 SW23G32   30.05F                  
POCATELLO      MOSUNNY   62  31  31 W17G25    30.08F                  
REXBURG        MOSUNNY   59  35  40 SW20G29   30.04F                  
$$

IDZ006-010-011-018-031-032-180000-
CENTRAL IDAHO MOUNTAINS

  
CITY           SKY/WX    TMP DP  RH WIND       PRES   REMARKS
MCCALL         CLOUDY    53  37  54 S13       30.03S                  
HAILEY         MOSUNNY   59  36  41 S9        30.08S                  
STANLEY          N/A     52  29  41 VRB3      30.08R                  
SALMON         CLOUDY    59  45  59 NW3       29.98S                  
CHALLIS        MOSUNNY   64  33  31 SW13      29.98S                  
$$

IDZ002-004-006-007-026-180000-
NORTHERN IDAHO

  
CITY           SKY/WX    TMP DP  RH WIND       PRES   REMARKS
LEWISTON       CLOUDY    72  38  29 S6        29.85F                  
LOWELL           N/A     71  53  52 CALM      29.90F                  
COEUR D'ALENE  CLOUDY    64  40  41 SE9       29.90F                  
MULLAN PASS    PTSUNNY   47  34  60 CALM      29.98S                  
$$